| time (UTC) | temp C | wind direction | speed KPH | gust KPH | rain 1hr cm | rain 24hr cm | rain mn cm | humidity % | barometer mb |
| 20260507094513 | 2 | 281 | 0.0 | 0.0 | 0.00 | 0.00 | 0.00 | 78 | 1012.1 |
| 20260507093012 | 3 | 281 | 0.0 | 0.0 | 0.00 | 0.00 | 0.00 | 77 | 1012.3 |
| 20260507091509 | 3 | 281 | 0.0 | 0.0 | 0.00 | 0.00 | 0.00 | 74 | 1012.3 |
| 20260507090007 | 3 | 281 | 0.0 | 0.0 | 0.00 | 0.00 | 0.00 | 72 | 1012.3 |
| 20260507084505 | 4 | 281 | 0.0 | 0.0 | 0.00 | 0.00 | 0.00 | 71 | 1012.3 |
| 20260507083003 | 4 | 281 | 0.0 | 0.0 | 0.00 | 0.00 | 0.00 | 69 | 1012.3 |
| 20260507081604 | 5 | 281 | 0.0 | 0.0 | 0.00 | 0.00 | 0.00 | 67 | 1012.4 |
| 20260507080055 | 5 | 281 | 0.0 | 0.0 | 0.00 | 0.00 | 0.00 | 66 | 1012.3 |
| 20260507074605 | 6 | 281 | 0.0 | 0.0 | 0.00 | 0.00 | 0.00 | 64 | 1012.3 |
| 20260507073059 | 6 | 281 | 0.0 | 0.0 | 0.00 | 0.00 | 0.00 | 63 | 1012.3 |
| 20260507071548 | 6 | 281 | 0.0 | 0.0 | 0.00 | 0.00 | 0.00 | 62 | 1012.2 |
| 20260507070046 | 6 | 281 | 0.0 | 0.0 | 0.00 | 0.00 | 0.00 | 60 | 1012.3 |
| 20260507064643 | 7 | 281 | 0.0 | 0.0 | 0.00 | 0.00 | 0.00 | 59 | 1012.4 |
| 20260507063048 | 7 | 281 | 0.0 | 0.0 | 0.00 | 0.00 | 0.00 | 59 | 1012.5 |
| 20260507061543 | 7 | 281 | 0.0 | 0.0 | 0.00 | 0.00 | 0.00 | 59 | 1012.6 |
| 20260507060044 | 7 | 281 | 0.0 | 0.0 | 0.00 | 0.00 | 0.00 | 59 | 1012.6 |
| 20260507054542 | 7 | 281 | 0.0 | 0.0 | 0.00 | 0.00 | 0.00 | 59 | 1012.7 |
| 20260507053037 | 7 | 281 | 0.0 | 0.0 | 0.00 | 0.00 | 0.00 | 58 | 1012.8 |
| 20260507051536 | 7 | 281 | 0.0 | 0.0 | 0.00 | 0.00 | 0.00 | 57 | 1012.8 |
| 20260507050037 | 7 | 281 | 0.0 | 0.0 | 0.00 | 0.00 | 0.00 | 56 | 1012.8 |
| 20260507044538 | 8 | 281 | 0.0 | 0.0 | 0.00 | 0.00 | 0.00 | 56 | 1012.8 |
| 20260507043030 | 8 | 281 | 0.0 | 0.0 | 0.00 | 0.00 | 0.00 | 55 | 1012.8 |
| 20260507041536 | 8 | 281 | 0.0 | 0.0 | 0.00 | 0.00 | 0.00 | 54 | 1012.7 |
| 20260507040025 | 8 | 281 | 0.0 | 6.4 | 0.00 | 0.00 | 0.00 | 54 | 1012.7 |
| 20260507034525 | 8 | 281 | 1.6 | 4.8 | 0.00 | 0.00 | 0.00 | 53 | 1012.7 |
| 20260507033028 | 8 | 281 | 1.6 | 4.8 | 0.00 | 0.00 | 0.00 | 53 | 1012.8 |
| 20260507031527 | 8 | 281 | 3.2 | 6.4 | 0.00 | 0.00 | 0.00 | 52 | 1012.8 |
| 20260507030024 | 8 | 281 | 1.6 | 3.2 | 0.00 | 0.00 | 0.00 | 52 | 1012.9 |
| 20260507024524 | 8 | 282 | 1.6 | 4.8 | 0.00 | 0.00 | 0.00 | 51 | 1012.8 |
| 20260507023022 | 9 | 282 | 0.0 | 3.2 | 0.00 | 0.00 | 0.00 | 51 | 1012.7 |
| 20260507021522 | 9 | 282 | 1.6 | 6.4 | 0.00 | 0.00 | 0.00 | 49 | 1012.7 |
| 20260507020023 | 9 | 278 | 3.2 | 6.4 | 0.00 | 0.00 | 0.00 | 49 | 1012.6 |
| 20260507014529 | 9 | 278 | 3.2 | 6.4 | 0.00 | 0.00 | 0.00 | 48 | 1012.6 |
| 20260507013024 | 10 | 278 | 1.6 | 6.4 | 0.00 | 0.00 | 0.00 | 47 | 1012.5 |
| 20260507011521 | 10 | 278 | 3.2 | 11.3 | 0.00 | 0.00 | 0.00 | 46 | 1012.4 |
| 20260507010019 | 10 | 278 | 3.2 | 12.9 | 0.00 | 0.00 | 0.00 | 45 | 1012.4 |
| 20260507004531 | 10 | 268 | 1.6 | 9.7 | 0.00 | 0.00 | 0.00 | 45 | 1012.2 |
| 20260507003019 | 10 | 277 | 3.2 | 12.9 | 0.00 | 0.00 | 0.00 | 44 | 1012.3 |
| 20260507001524 | 10 | 281 | 6.4 | 12.9 | 0.00 | 0.00 | 0.00 | 42 | 1012.0 |
| 20260507000024 | 10 | 284 | 4.8 | 11.3 | 0.00 | 0.00 | 0.00 | 43 | 1012.1 |
| 20260506234529 | 10 | 286 | 6.4 | 14.5 | 0.00 | 0.00 | 0.00 | 42 | 1012.0 |
| 20260506233016 | 11 | 281 | 4.8 | 11.3 | 0.00 | 0.00 | 0.00 | 42 | 1012.0 |
| 20260506231530 | 11 | 273 | 6.4 | 17.7 | 0.00 | 0.00 | 0.00 | 40 | 1011.9 |
| 20260506230014 | 11 | 294 | 3.2 | 14.5 | 0.00 | 0.00 | 0.00 | 40 | 1011.9 |
| 20260506224514 | 11 | 277 | 3.2 | 19.3 | 0.00 | 0.00 | 0.00 | 41 | 1011.9 |
| 20260506223013 | 11 | 274 | 11.3 | 20.9 | 0.00 | 0.00 | 0.00 | 40 | 1011.9 |
| 20260506221513 | 11 | 297 | 3.2 | 12.9 | 0.00 | 0.00 | 0.00 | 42 | 1011.9 |
| 20260506220012 | 11 | 306 | 3.2 | 16.1 | 0.00 | 0.00 | 0.00 | 43 | 1011.8 |
| 20260506214512 | 11 | 314 | 3.2 | 9.7 | 0.00 | 0.00 | 0.00 | 43 | 1011.8 |
| 20260506213011 | 11 | 279 | 8.0 | 16.1 | 0.00 | 0.00 | 0.00 | 40 | 1011.7 |
| 20260506211513 | 11 | 314 | 1.6 | 9.7 | 0.00 | 0.00 | 0.00 | 44 | 1011.7 |
| 20260506210008 | 11 | 299 | 4.8 | 11.3 | 0.00 | 0.00 | 0.00 | 44 | 1011.8 |
| 20260506204507 | 11 | 296 | 6.4 | 17.7 | 0.00 | 0.00 | 0.00 | 43 | 1011.9 |
| 20260506203007 | 11 | 271 | 3.2 | 16.1 | 0.00 | 0.00 | 0.00 | 46 | 1011.9 |
| 20260506201506 | 11 | 322 | 4.8 | 12.9 | 0.00 | 0.00 | 0.00 | 44 | 1012.0 |
| 20260506200006 | 11 | 286 | 4.8 | 12.9 | 0.00 | 0.00 | 0.00 | 45 | 1012.1 |
| 20260506194505 | 11 | 330 | 1.6 | 14.5 | 0.00 | 0.00 | 0.00 | 44 | 1012.0 |
| 20260506193004 | 11 | 274 | 4.8 | 12.9 | 0.00 | 0.00 | 0.00 | 46 | 1012.2 |
| 20260506191503 | 11 | 290 | 4.8 | 11.3 | 0.00 | 0.00 | 0.00 | 45 | 1012.3 |
| 20260506190002 | 11 | 318 | 4.8 | 9.7 | 0.00 | 0.00 | 0.00 | 48 | 1012.3 |
| 20260506184501 | 10 | 288 | 0.0 | 6.4 | 0.00 | 0.00 | 0.00 | 49 | 1012.4 |
| 20260506183002 | 10 | 346 | 3.2 | 11.3 | 0.00 | 0.00 | 0.00 | 47 | 1012.3 |
| 20260506181600 | 11 | 293 | 0.0 | 9.7 | 0.00 | 0.00 | 0.00 | 46 | 1012.2 |
| 20260506180158 | 11 | 290 | 1.6 | 12.9 | 0.00 | 0.00 | 0.00 | 49 | 1012.3 |
| 20260506174559 | 10 | 317 | 3.2 | 12.9 | 0.00 | 0.00 | 0.00 | 48 | 1012.5 |
| 20260506173108 | 10 | 5 | 4.8 | 9.7 | 0.00 | 0.00 | 0.00 | 48 | 1012.6 |
| 20260506171556 | 10 | 302 | 8.0 | 16.1 | 0.00 | 0.00 | 0.00 | 45 | 1012.8 |
| 20260506170112 | 10 | 325 | 4.8 | 17.7 | 0.00 | 0.00 | 0.00 | 45 | 1012.8 |
| 20260506164554 | 10 | 311 | 6.4 | 16.1 | 0.00 | 0.00 | 0.00 | 49 | 1012.7 |
| 20260506163104 | 10 | 321 | 6.4 | 16.1 | 0.00 | 0.00 | 0.00 | 48 | 1012.7 |
| 20260506161550 | 10 | 285 | 6.4 | 14.5 | 0.00 | 0.00 | 0.00 | 51 | 1012.7 |
| 20260506160046 | 10 | 319 | 3.2 | 8.0 | 0.00 | 0.00 | 0.00 | 54 | 1012.9 |
| 20260506154543 | 8 | 342 | 4.8 | 11.3 | 0.00 | 0.00 | 0.00 | 56 | 1013.0 |
| 20260506153041 | 8 | 29 | 3.2 | 11.3 | 0.00 | 0.00 | 0.00 | 63 | 1012.7 |
| 20260506151543 | 8 | 314 | 1.6 | 9.7 | 0.00 | 0.00 | 0.00 | 63 | 1012.7 |
| 20260506150037 | 8 | 17 | 3.2 | 9.7 | 0.00 | 0.00 | 0.00 | 63 | 1012.6 |
| 20260506144543 | 8 | 12 | 3.2 | 11.3 | 0.00 | 0.13 | 0.00 | 67 | 1012.5 |
| 20260506143035 | 7 | 32 | 3.2 | 9.7 | 0.00 | 0.13 | 0.00 | 68 | 1012.5 |
| 20260506141533 | 7 | 50 | 6.4 | 11.3 | 0.00 | 0.13 | 0.00 | 67 | 1012.3 |
| 20260506140029 | 7 | 24 | 3.2 | 9.7 | 0.00 | 0.13 | 0.00 | 68 | 1012.2 |
| 20260506134528 | 7 | 39 | 4.8 | 9.7 | 0.00 | 0.13 | 0.00 | 70 | 1012.0 |
| 20260506133028 | 7 | 75 | 1.6 | 8.0 | 0.00 | 0.13 | 0.00 | 70 | 1011.9 |
| 20260506131525 | 6 | 59 | 6.4 | 14.5 | 0.00 | 0.13 | 0.00 | 71 | 1011.7 |
| 20260506130026 | 6 | 58 | 1.6 | 16.1 | 0.00 | 0.13 | 0.00 | 70 | 1011.8 |
| 20260506124524 | 6 | 59 | 4.8 | 14.5 | 0.00 | 0.13 | 0.00 | 71 | 1011.7 |
| 20260506123028 | 6 | 42 | 4.8 | 16.1 | 0.00 | 0.13 | 0.00 | 70 | 1011.4 |
| 20260506121523 | 6 | 15 | 0.0 | 1.6 | 0.00 | 0.13 | 0.00 | 69 | 1011.3 |
| 20260506120018 | 5 | 317 | 0.0 | 0.0 | 0.00 | 0.13 | 0.00 | 69 | 1011.0 |
| 20260506114514 | 5 | 317 | 0.0 | 4.8 | 0.00 | 0.13 | 0.00 | 70 | 1010.7 |
| 20260506113024 | 5 | 340 | 3.2 | 8.0 | 0.00 | 0.13 | 0.00 | 70 | 1010.5 |
| 20260506111510 | 5 | 338 | 0.0 | 0.0 | 0.00 | 0.13 | 0.00 | 72 | 1010.2 |
| 20260506110011 | 4 | 338 | 0.0 | 0.0 | 0.00 | 0.13 | 0.00 | 73 | 1010.1 |
| 20260506104508 | 4 | 338 | 0.0 | 0.0 | 0.00 | 0.13 | 0.00 | 73 | 1010.1 |
| 20260506103011 | 4 | 338 | 0.0 | 0.0 | 0.00 | 0.13 | 0.00 | 73 | 1009.8 |
| 20260506101504 | 5 | 338 | 0.0 | 0.0 | 0.00 | 0.13 | 0.00 | 72 | 1010.0 |
| 20260506100100 | 5 | 338 | 0.0 | 0.0 | 0.00 | 0.13 | 0.00 | 71 | 1009.4 |